Total_Precipitation_Accumulation
0.05 0.11 0.17 0.19 0.16 0.13 0.11 0.11 0.14 0.18 0.29 0.37 0.45 0.47 0.41 0.40 0.43 0.43 0.47 0.46 0.43 0.47 0.40 0.38 0.38 0.36 0.38 0.43 0.47 0.46 0.53 0.63 0.69 0.78 0.84 0.93 1.08 1.19 1.28 1.33 1.27 1.33 1.38 1.37
0.07 0.11 0.12 0.14 0.17 0.12 0.08 0.08 0.13 0.20 0.30 0.41 0.42 0.51 0.50 0.43 0.39 0.43 0.50 0.50 0.58 0.59 0.56 0.54 0.52 0.47 0.48 0.55 0.58 0.65 0.74 0.79 0.82 0.89 0.96 1.01 1.07 1.11 1.25 1.31 1.36 1.44 1.50 1.52
0.15 0.15 0.16 0.17 0.16 0.12 0.11 0.14 0.18 0.20 0.30 0.41 0.49 0.59 0.63 0.63 0.52 0.51 0.62 0.65 0.74 0.80 0.77 0.74 0.67 0.62 0.62 0.66 0.73 0.82 0.90 1.02 1.07 1.10 1.19 1.21 1.22 1.21 1.25 1.39 1.49 1.51 1.50 1.50
0.21 0.24 0.29 0.20 0.17 0.15 0.16 0.17 0.19 0.30 0.41 0.48 0.56 0.61 0.69 0.79 0.71 0.62 0.60 0.65 0.77 0.87 0.87 0.78 0.76 0.79 0.88 0.91 0.97 1.08 1.16 1.27 1.40 1.45 1.52 1.57 1.62 1.59 1.60 1.66 1.75 1.70 1.60 1.60
0.32 0.38 0.33 0.27 0.24 0.23 0.24 0.32 0.34 0.44 0.64 0.71 0.67 0.78 0.94 0.86 0.71 0.68 0.68 0.71 0.88 0.89 0.86 0.85 0.97 1.01 1.03 1.08 1.15 1.33 1.49 1.60 1.69 1.75 1.80 1.80 1.79 1.85 1.91 2.01 2.05 1.98 1.93 1.97
0.40 0.45 0.47 0.44 0.38 0.36 0.45 0.81 0.71 0.71 0.72 0.70 0.73 0.96 1.01 0.75 0.64 0.64 0.68 0.81 0.93 0.98 0.97 1.05 1.28 1.33 1.36 1.40 1.47 1.54 1.60 1.71 1.88 1.99 2.04 1.98 1.99 2.12 2.28 2.40 2.38 2.36 2.38 2.40
0.47 0.50 0.48 0.49 0.45 0.51 0.90 1.25 1.03 0.93 0.86 0.86 0.95 0.97 0.96 0.83 0.69 0.67 0.69 0.78 0.89 0.94 1.00 1.08 1.26 1.39 1.62 1.78 1.81 1.82 1.87 1.89 1.95 2.06 2.16 2.17 2.23 2.31 2.44 2.54 2.53 2.49 2.43 2.36
0.72 0.81 0.84 0.56 0.58 0.88 1.13 0.98 1.02 1.12 1.16 1.15 1.11 0.94 0.82 0.76 0.75 0.70 0.68 0.70 0.80 0.98 1.08 1.18 1.35 1.58 1.77 1.92 2.06 2.12 2.11 2.21 2.22 2.22 2.14 2.11 2.28 2.41 2.52 2.63 2.59 2.53 2.54 2.42
0.97 1.06 0.94 0.72 0.80 0.84 0.82 0.95 1.03 1.08 1.19 1.23 1.19 1.18 1.02 0.94 0.92 0.85 0.80 0.79 0.82 0.93 1.08 1.17 1.27 1.49 1.85 1.94 1.95 1.98 2.05 2.10 2.18 2.20 2.22 2.23 2.36 2.49 2.62 2.65 2.56 2.42 2.40 2.37
1.12 1.15 1.02 0.96 0.97 0.99 0.97 1.03 1.06 1.08 1.12 1.16 1.14 1.22 1.17 1.02 0.88 0.82 0.80 0.82 0.86 0.93 1.04 1.12 1.08 1.19 1.39 1.59 1.69 1.70 1.72 1.76 1.78 1.90 2.02 2.18 2.34 2.38 2.44 2.50 2.51 2.48 2.41 2.33
1.35 1.47 1.44 1.33 1.26 1.22 1.15 1.23 1.34 1.29 1.24 1.26 1.14 1.12 1.12 0.96 0.84 0.77 0.74 0.72 0.79 0.92 0.93 0.96 1.04 1.05 1.09 1.16 1.34 1.49 1.52 1.54 1.61 1.72 1.83 1.98 2.18 2.31 2.25 2.26 2.41 2.32 2.18 2.07
1.41 1.44 1.58 1.60 1.41 1.30 1.22 1.30 1.34 1.30 1.21 1.18 1.11 1.09 0.99 0.84 0.75 0.74 0.72 0.72 0.76 0.83 0.83 0.83 0.92 0.95 0.98 1.11 1.29 1.39 1.37 1.38 1.41 1.45 1.54 1.67 1.83 1.95 1.91 1.67 1.69 1.60 1.46 1.33
1.26 1.34 1.48 1.58 1.45 1.39 1.44 1.47 1.42 1.36 1.25 1.16 1.04 0.99 0.92 0.84 0.73 0.72 0.77 0.81 0.86 0.88 0.89 0.90 0.90 0.95 1.07 1.25 1.40 1.50 1.42 1.34 1.33 1.34 1.42 1.46 1.51 1.57 1.61 1.46 1.27 1.19 1.05 0.91
1.40 1.54 1.79 1.88 1.69 1.53 1.56 1.50 1.43 1.48 1.42 1.30 1.13 1.00 0.89 0.87 0.81 0.81 0.91 1.00 1.04 1.02 1.00 1.01 1.02 1.01 1.03 1.14 1.31 1.57 1.65 1.56 1.41 1.35 1.34 1.33 1.35 1.39 1.48 1.50 1.40 1.18 0.95 0.72
1.54 1.65 1.77 1.78 1.66 1.57 1.55 1.55 1.48 1.45 1.35 1.31 1.25 1.09 0.96 0.91 0.89 0.90 0.92 0.99 1.07 1.07 1.06 0.99 0.96 0.96 0.97 1.02 1.10 1.25 1.46 1.47 1.36 1.31 1.31 1.32 1.33 1.39 1.47 1.49 1.52 1.44 1.15 0.83
1.59 1.60 1.72 1.66 1.59 1.53 1.47 1.53 1.54 1.39 1.21 1.20 1.22 1.14 1.09 0.96 0.92 0.90 0.95 1.10 1.26 1.25 1.12 1.05 1.00 0.94 0.93 0.96 0.99 1.07 1.17 1.18 1.09 1.09 1.12 1.19 1.24 1.28 1.31 1.38 1.41 1.39 1.22 0.95
1.46 1.52 1.67 1.72 1.61 1.47 1.44 1.53 1.47 1.35 1.16 1.04 1.10 1.08 1.04 1.02 1.03 1.06 1.11 1.19 1.32 1.31 1.18 1.10 1.04 0.95 0.90 0.92 0.98 0.99 1.02 0.96 0.85 0.90 1.00 1.06 1.12 1.16 1.16 1.18 1.20 1.20 1.09 0.79
1.18 1.29 1.34 1.39 1.44 1.38 1.33 1.34 1.30 1.23 1.18 1.09 1.08 1.09 1.04 1.09 1.18 1.27 1.31 1.31 1.29 1.18 1.08 1.05 0.98 0.93 0.87 0.84 0.90 0.94 1.00 0.94 0.78 0.79 0.93 0.98 0.99 1.07 1.05 1.03 1.04 1.05 0.95 0.72
1.12 1.19 1.15 1.14 1.14 1.14 1.16 1.18 1.10 1.05 1.04 1.06 1.08 1.12 1.08 1.11 1.19 1.25 1.25 1.34 1.39 1.27 1.04 0.88 0.81 0.69 0.66 0.62 0.63 0.74 0.87 0.91 0.78 0.74 0.84 0.83 0.89 1.07 1.09 1.05 1.04 1.02 0.88 0.78
1.06 1.13 1.17 1.10 0.99 1.03 1.04 1.05 1.03 1.01 1.00 1.05 1.10 1.07 1.05 1.10 1.16 1.23 1.21 1.26 1.33 1.29 1.08 0.85 0.65 0.54 0.47 0.46 0.50 0.54 0.66 0.76 0.71 0.65 0.69 0.77 0.88 1.02 1.09 1.06 1.05 1.05 0.93 0.83
0.98 1.05 1.05 1.04 0.99 0.99 0.98 0.92 0.91 0.99 1.01 1.01 1.06 1.09 1.11 1.09 1.08 1.16 1.28 1.32 1.23 1.20 1.12 1.00 0.74 0.55 0.45 0.45 0.46 0.50 0.62 0.71 0.64 0.56 0.57 0.67 0.82 0.95 1.02 1.01 0.98 0.95 0.87 0.80
0.99 0.97 0.92 0.91 0.91 0.92 0.94 0.92 0.84 0.80 0.82 0.93 0.98 1.02 1.11 1.08 1.05 1.06 1.08 1.20 1.19 1.23 1.11 0.97 0.81 0.67 0.55 0.46 0.41 0.46 0.57 0.64 0.61 0.53 0.51 0.58 0.74 0.85 0.93 0.97 0.98 0.94 0.89 0.86
1.08 1.01 0.93 0.91 0.85 0.83 0.83 0.84 0.80 0.74 0.86 1.01 1.03 1.05 1.11 1.04 1.03 1.14 1.09 0.94 0.95 1.07 0.94 0.84 0.85 0.75 0.60 0.50 0.44 0.49 0.60 0.67 0.67 0.57 0.54 0.61 0.69 0.74 0.81 0.84 0.86 0.90 0.91 0.85
1.07 0.95 0.93 0.95 0.88 0.85 0.92 0.82 0.75 0.78 0.88 1.02 1.01 1.01 1.04 1.04 1.03 0.98 0.95 0.90 0.88 0.94 0.81 0.75 0.72 0.68 0.64 0.60 0.61 0.64 0.68 0.70 0.68 0.59 0.56 0.59 0.61 0.62 0.69 0.77 0.84 0.90 0.87 0.81
0.99 0.91 0.86 0.94 0.97 0.93 0.95 0.84 0.79 0.85 0.90 0.98 0.94 0.94 0.96 0.95 1.08 1.08 0.96 0.85 0.86 0.88 0.80 0.76 0.68 0.65 0.62 0.68 0.76 0.76 0.72 0.70 0.68 0.62 0.59 0.57 0.57 0.60 0.68 0.82 0.92 0.92 0.85 0.83
0.98 0.97 0.92 0.93 0.92 0.85 0.83 0.79 0.78 0.82 0.99 1.15 1.04 0.94 0.98 0.97 0.94 0.97 1.02 0.95 0.90 0.90 0.84 0.78 0.70 0.67 0.67 0.77 0.83 0.81 0.74 0.70 0.69 0.68 0.67 0.67 0.68 0.72 0.80 0.90 0.93 0.85 0.77 0.74
0.92 0.88 0.83 0.82 0.84 0.85 0.87 0.83 0.77 0.81 0.96 1.20 1.17 0.94 0.90 0.91 0.91 0.94 1.00 1.03 0.98 0.96 0.92 0.81 0.72 0.66 0.67 0.73 0.75 0.73 0.72 0.70 0.72 0.69 0.66 0.66 0.68 0.73 0.74 0.79 0.78 0.70 0.66 0.60